Time,TemperatureF,DewpointF,PressureIn,WindDirection,WindDirectionDegrees,WindSpeedMPH,WindSpeedGustMPH,Humidity,HourlyPrecipIn,Conditions,Clouds,dailyrainin,SoftwareType,DateUTC
2013-12-02 00:00:00,29.7,27.1,30.07,SSE,148,0.0,0.0,90,0.00,,,0.00,Wunderground v.1.15,2013-12-02 05:00:00,
2013-12-02 00:05:00,29.4,26.6,30.07,SSE,148,0.0,0.0,89,0.00,,,0.00,Wunderground v.1.15,2013-12-02 05:05:00,
2013-12-02 00:15:00,29.0,26.4,30.07,SSE,148,0.0,0.0,90,0.00,,,0.00,Wunderground v.1.15,2013-12-02 05:15:00,
2013-12-02 00:20:00,29.0,26.4,30.07,SSE,148,0.0,0.0,90,0.00,,,0.00,Wunderground v.1.15,2013-12-02 05:20:00,
2013-12-02 00:25:00,28.9,26.6,30.07,SSE,148,0.0,0.0,91,0.00,,,0.00,Wunderground v.1.15,2013-12-02 05:25:00,
2013-12-02 00:35:00,28.9,26.6,30.07,SSE,148,0.0,0.0,91,0.00,,,0.00,Wunderground v.1.15,2013-12-02 05:35:00,
2013-12-02 00:40:00,29.0,26.7,30.07,SSE,148,0.0,0.0,91,0.00,,,0.00,Wunderground v.1.15,2013-12-02 05:40:00,
2013-12-02 00:50:00,29.0,26.7,30.06,SSE,148,0.0,0.0,91,0.00,,,0.00,Wunderground v.1.15,2013-12-02 05:50:00,
2013-12-02 00:55:00,28.8,26.5,30.06,SSE,148,0.0,0.0,91,0.00,,,0.00,Wunderground v.1.15,2013-12-02 05:55:00,
2013-12-02 01:00:00,28.5,25.9,30.06,SSE,148,0.0,0.0,90,0.00,,,0.00,Wunderground v.1.15,2013-12-02 06:00:00,
2013-12-02 01:05:00,28.3,25.7,30.06,SSE,148,0.0,0.0,90,0.00,,,0.00,Wunderground v.1.15,2013-12-02 06:05:00,
2013-12-02 01:10:00,27.9,25.1,30.06,SSE,148,0.0,0.0,89,0.00,,,0.00,Wunderground v.1.15,2013-12-02 06:10:00,
2013-12-02 01:15:00,27.6,25.1,30.06,SSE,148,0.0,0.0,90,0.00,,,0.00,Wunderground v.1.15,2013-12-02 06:15:00,
2013-12-02 01:20:00,27.6,25.1,30.06,SSE,148,0.0,0.0,90,0.00,,,0.00,Wunderground v.1.15,2013-12-02 06:20:00,
2013-12-02 01:30:00,27.2,24.4,30.07,SSE,148,0.0,0.0,89,0.00,,,0.00,Wunderground v.1.15,2013-12-02 06:30:00,
2013-12-02 01:35:00,27.0,24.2,30.07,SSE,148,0.0,0.0,89,0.00,,,0.00,Wunderground v.1.15,2013-12-02 06:35:00,
2013-12-02 01:40:00,26.8,24.0,30.07,SSE,148,0.0,0.0,89,0.00,,,0.00,Wunderground v.1.15,2013-12-02 06:40:00,
2013-12-02 01:45:00,26.6,23.8,30.07,SSE,148,0.0,0.0,89,0.00,,,0.00,Wunderground v.1.15,2013-12-02 06:45:00,
2013-12-02 01:50:00,26.7,23.9,30.07,SSE,148,0.0,0.0,89,0.00,,,0.00,Wunderground v.1.15,2013-12-02 06:50:00,
2013-12-02 01:55:00,26.8,24.3,30.06,SSE,148,0.0,0.0,90,0.00,,,0.00,Wunderground v.1.15,2013-12-02 06:55:00,
2013-12-02 02:00:00,26.9,24.4,30.07,SSE,148,0.0,0.0,90,0.00,,,0.00,Wunderground v.1.15,2013-12-02 07:00:00,
2013-12-02 02:05:00,26.9,24.4,30.07,SSE,148,0.0,0.0,90,0.00,,,0.00,Wunderground v.1.15,2013-12-02 07:05:00,
2013-12-02 02:10:00,27.0,24.5,30.06,SSE,148,0.0,0.0,90,0.00,,,0.00,Wunderground v.1.15,2013-12-02 07:10:00,
2013-12-02 02:15:00,27.0,24.5,30.06,SSE,148,0.0,0.0,90,0.00,,,0.00,Wunderground v.1.15,2013-12-02 07:15:00,
2013-12-02 02:20:00,27.1,24.8,30.06,SSE,148,0.0,0.0,91,0.00,,,0.00,Wunderground v.1.15,2013-12-02 07:20:00,
2013-12-02 02:25:00,27.2,24.9,30.06,SSE,148,0.0,0.0,91,0.00,,,0.00,Wunderground v.1.15,2013-12-02 07:25:00,
2013-12-02 02:30:00,27.1,24.8,30.06,SSE,148,0.0,0.0,91,0.00,,,0.00,Wunderground v.1.15,2013-12-02 07:30:00,
2013-12-02 02:35:00,26.9,24.6,30.06,SSE,148,0.0,0.0,91,0.00,,,0.00,Wunderground v.1.15,2013-12-02 07:35:00,
2013-12-02 02:40:00,26.9,24.9,30.06,SSE,148,0.0,0.0,92,0.00,,,0.00,Wunderground v.1.15,2013-12-02 07:40:00,
2013-12-02 02:45:00,27.1,25.1,30.06,SSE,148,0.0,0.0,92,0.00,,,0.00,Wunderground v.1.15,2013-12-02 07:45:00,
2013-12-02 02:50:00,27.2,25.2,30.05,SSE,148,0.0,0.0,92,0.00,,,0.00,Wunderground v.1.15,2013-12-02 07:50:00,
2013-12-02 02:55:00,27.3,25.3,30.05,SSE,148,0.0,0.0,92,0.00,,,0.00,Wunderground v.1.15,2013-12-02 07:55:00,
2013-12-02 03:00:00,27.5,25.5,30.05,SSE,148,0.0,0.0,92,0.00,,,0.00,Wunderground v.1.15,2013-12-02 08:00:00,
2013-12-02 03:05:00,27.5,25.5,30.05,SSE,148,0.0,0.0,92,0.00,,,0.00,Wunderground v.1.15,2013-12-02 08:05:00,
2013-12-02 03:10:00,27.4,25.4,30.05,SSE,148,0.0,0.0,92,0.00,,,0.00,Wunderground v.1.15,2013-12-02 08:10:00,
2013-12-02 03:15:00,27.3,25.3,30.05,SSE,148,0.0,0.0,92,0.00,,,0.00,Wunderground v.1.15,2013-12-02 08:15:00,
2013-12-02 03:54:00,27.6,25.6,30.04,SSE,148,0.0,0.0,92,0.00,,,0.00,Wunderground v.1.15,2013-12-02 08:54:00,
2013-12-02 04:05:00,27.8,25.8,30.04,SSE,148,0.0,0.0,92,0.00,,,0.00,Wunderground v.1.15,2013-12-02 09:05:00,
2013-12-02 04:20:00,27.7,25.9,30.04,SSE,148,0.0,0.0,93,0.00,,,0.00,Wunderground v.1.15,2013-12-02 09:20:00,
2013-12-02 04:30:00,27.8,26.0,30.04,SSE,148,0.0,0.0,93,0.00,,,0.00,Wunderground v.1.15,2013-12-02 09:30:00,
2013-12-02 04:40:00,27.6,25.8,30.04,SSE,148,0.0,0.0,93,0.00,,,0.00,Wunderground v.1.15,2013-12-02 09:40:00,
2013-12-02 04:45:00,27.8,26.0,30.04,SSE,148,0.0,0.0,93,0.00,,,0.00,Wunderground v.1.15,2013-12-02 09:45:00,
2013-12-02 04:55:00,28.1,26.3,30.04,SSE,148,0.0,0.0,93,0.00,,,0.00,Wunderground v.1.15,2013-12-02 09:55:00,
2013-12-02 05:00:00,28.1,26.3,30.04,SSE,148,0.0,0.0,93,0.00,,,0.00,Wunderground v.1.15,2013-12-02 10:00:00,
2013-12-02 05:05:00,28.2,26.4,30.04,SSE,148,0.0,0.0,93,0.00,,,0.00,Wunderground v.1.15,2013-12-02 10:05:00,
2013-12-02 05:10:00,28.3,26.5,30.04,SSE,148,0.0,0.0,93,0.00,,,0.00,Wunderground v.1.15,2013-12-02 10:10:00,
2013-12-02 05:15:00,28.3,26.5,30.04,SSE,148,0.0,0.0,93,0.00,,,0.00,Wunderground v.1.15,2013-12-02 10:15:00,
2013-12-02 05:20:00,28.2,26.4,30.04,SSE,148,0.0,0.0,93,0.00,,,0.00,Wunderground v.1.15,2013-12-02 10:20:00,
2013-12-02 05:25:00,28.2,26.4,30.04,SSE,148,0.0,0.0,93,0.00,,,0.00,Wunderground v.1.15,2013-12-02 10:25:00,
2013-12-02 05:35:00,28.1,26.3,30.04,SSE,148,0.0,0.0,93,0.00,,,0.00,Wunderground v.1.15,2013-12-02 10:35:00,
2013-12-02 05:40:00,28.3,26.5,30.04,SSE,148,0.0,0.0,93,0.00,,,0.00,Wunderground v.1.15,2013-12-02 10:40:00,
2013-12-02 05:45:00,28.5,26.7,30.04,SSE,148,0.0,0.0,93,0.00,,,0.00,Wunderground v.1.15,2013-12-02 10:45:00,
2013-12-02 05:50:00,28.7,26.9,30.04,SSE,148,0.0,0.0,93,0.00,,,0.00,Wunderground v.1.15,2013-12-02 10:50:00,
2013-12-02 05:55:00,28.9,27.1,30.04,SSE,148,0.0,0.0,93,0.00,,,0.00,Wunderground v.1.15,2013-12-02 10:55:00,
2013-12-02 06:00:00,29.0,27.2,30.04,SSE,148,0.0,0.0,93,0.00,,,0.00,Wunderground v.1.15,2013-12-02 11:00:00,
2013-12-02 06:05:00,29.0,27.2,30.04,SSE,148,0.0,0.0,93,0.00,,,0.00,Wunderground v.1.15,2013-12-02 11:05:00,
2013-12-02 06:10:00,29.2,27.4,30.04,SSE,148,0.0,0.0,93,0.00,,,0.00,Wunderground v.1.15,2013-12-02 11:10:00,
2013-12-02 06:15:00,29.3,27.5,30.03,SSE,148,0.0,0.0,93,0.00,,,0.00,Wunderground v.1.15,2013-12-02 11:15:00,
2013-12-02 06:25:00,29.4,27.4,30.03,SSE,148,0.0,0.0,92,0.00,,,0.00,Wunderground v.1.15,2013-12-02 11:25:00,
2013-12-02 06:30:00,29.0,27.0,30.03,SSE,148,0.0,0.0,92,0.00,,,0.00,Wunderground v.1.15,2013-12-02 11:30:00,
2013-12-02 06:40:00,28.4,26.4,30.02,SSE,148,0.0,0.0,92,0.00,,,0.00,Wunderground v.1.15,2013-12-02 11:40:00,
2013-12-02 06:50:00,28.2,26.4,30.02,SSE,148,0.0,0.0,93,0.00,,,0.00,Wunderground v.1.15,2013-12-02 11:50:00,
2013-12-02 06:55:00,28.2,26.4,30.02,SSE,148,0.0,0.0,93,0.00,,,0.00,Wunderground v.1.15,2013-12-02 11:55:00,
2013-12-02 07:00:00,28.3,26.5,30.02,SSE,148,0.0,0.0,93,0.00,,,0.00,Wunderground v.1.15,2013-12-02 12:00:00,
2013-12-02 07:05:00,28.1,26.3,30.02,SSE,148,0.0,0.0,93,0.00,,,0.00,Wunderground v.1.15,2013-12-02 12:05:00,
2013-12-02 07:10:00,28.1,26.3,30.02,SSE,148,0.0,0.0,93,0.00,,,0.00,Wunderground v.1.15,2013-12-02 12:10:00,
2013-12-02 07:15:00,28.3,26.5,30.02,SSE,148,0.0,0.0,93,0.00,,,0.00,Wunderground v.1.15,2013-12-02 12:15:00,
2013-12-02 07:20:00,28.4,26.6,30.02,SSE,148,0.0,0.0,93,0.00,,,0.00,Wunderground v.1.15,2013-12-02 12:20:00,
2013-12-02 07:25:00,28.4,26.6,30.02,SSE,148,0.0,0.0,93,0.00,,,0.00,Wunderground v.1.15,2013-12-02 12:25:00,
2013-12-02 07:30:00,28.5,26.7,30.02,SSE,148,0.0,0.0,93,0.00,,,0.00,Wunderground v.1.15,2013-12-02 12:30:00,
2013-12-02 07:35:00,28.4,26.6,30.02,SSE,148,0.0,0.0,93,0.00,,,0.00,Wunderground v.1.15,2013-12-02 12:35:00,
2013-12-02 07:40:00,28.6,26.6,30.02,SSE,148,0.0,0.0,92,0.00,,,0.00,Wunderground v.1.15,2013-12-02 12:40:00,
2013-12-02 07:50:00,28.9,26.9,30.02,SSE,148,0.0,0.0,92,0.00,,,0.00,Wunderground v.1.15,2013-12-02 12:50:00,
2013-12-02 07:55:00,28.8,26.8,30.02,SSE,148,0.0,0.0,92,0.00,,,0.00,Wunderground v.1.15,2013-12-02 12:55:00,
2013-12-02 08:00:00,28.9,26.9,30.02,SSE,148,0.0,0.0,92,0.00,,,0.00,Wunderground v.1.15,2013-12-02 13:00:00,
2013-12-02 08:05:00,29.0,27.0,30.02,SSE,148,0.0,0.0,92,0.00,,,0.00,Wunderground v.1.15,2013-12-02 13:05:00,
2013-12-02 08:10:00,29.2,27.2,30.02,SSE,148,0.0,0.0,92,0.00,,,0.00,Wunderground v.1.15,2013-12-02 13:10:00,
2013-12-02 08:15:00,29.2,27.2,30.02,SSE,148,0.0,0.0,92,0.00,,,0.00,Wunderground v.1.15,2013-12-02 13:15:00,
2013-12-02 08:20:00,29.4,27.4,30.01,SSE,148,0.0,0.0,92,0.00,,,0.00,Wunderground v.1.15,2013-12-02 13:20:00,
2013-12-02 08:25:00,29.6,27.6,30.01,SSE,148,0.0,0.0,92,0.00,,,0.00,Wunderground v.1.15,2013-12-02 13:25:00,
2013-12-02 08:30:00,29.6,27.6,30.01,SSE,148,0.0,0.0,92,0.00,,,0.00,Wunderground v.1.15,2013-12-02 13:30:00,
2013-12-02 08:35:00,29.4,27.4,30.01,SSE,148,0.0,0.0,92,0.00,,,0.00,Wunderground v.1.15,2013-12-02 13:35:00,
2013-12-02 08:40:00,29.4,27.4,30.01,SSE,148,0.0,0.0,92,0.00,,,0.00,Wunderground v.1.15,2013-12-02 13:40:00,
2013-12-02 08:45:00,29.5,27.5,30.01,SSE,148,0.0,0.0,92,0.00,,,0.00,Wunderground v.1.15,2013-12-02 13:45:00,
2013-12-02 08:50:00,29.7,27.9,30.01,SSE,148,0.0,0.0,93,0.00,,,0.00,Wunderground v.1.15,2013-12-02 13:50:00,
2013-12-02 08:55:00,29.9,27.9,30.01,SSE,148,0.0,0.0,92,0.00,,,0.00,Wunderground v.1.15,2013-12-02 13:55:00,
2013-12-02 09:05:00,29.8,27.8,30.01,SSE,148,0.0,0.0,92,0.00,,,0.00,Wunderground v.1.15,2013-12-02 14:05:00,
2013-12-02 09:20:00,29.2,27.4,30.01,SSE,148,0.0,0.0,93,0.00,,,0.00,Wunderground v.1.15,2013-12-02 14:20:00,
2013-12-02 09:30:00,29.7,28.2,30.01,SSE,148,0.0,0.0,94,0.00,,,0.00,Wunderground v.1.15,2013-12-02 14:30:00,
2013-12-02 09:35:00,29.9,28.1,30.01,SSE,148,0.0,0.0,93,0.00,,,0.00,Wunderground v.1.15,2013-12-02 14:35:00,
2013-12-02 09:45:00,30.6,28.8,30.01,SSE,148,0.0,0.0,93,0.00,,,0.00,Wunderground v.1.15,2013-12-02 14:45:00,
2013-12-02 09:50:00,30.8,29.0,30.00,SSE,148,0.0,0.0,93,0.00,,,0.00,Wunderground v.1.15,2013-12-02 14:50:00,
2013-12-02 09:55:00,30.9,29.1,30.00,SSE,148,0.0,0.0,93,0.00,,,0.00,Wunderground v.1.15,2013-12-02 14:55:00,
2013-12-02 10:15:00,30.9,29.1,30.01,SSE,148,0.0,1.0,93,0.00,,,0.00,Wunderground v.1.15,2013-12-02 15:15:00,
2013-12-02 10:25:00,31.2,29.4,30.00,SSE,148,0.0,1.0,93,0.00,,,0.00,Wunderground v.1.15,2013-12-02 15:25:00,
2013-12-02 10:30:00,31.3,29.5,30.00,SSE,148,0.0,1.0,93,0.00,,,0.00,Wunderground v.1.15,2013-12-02 15:30:00,
2013-12-02 10:35:00,31.5,29.7,30.00,SSE,148,0.0,0.0,93,0.00,,,0.00,Wunderground v.1.15,2013-12-02 15:35:00,
2013-12-02 10:40:00,31.7,29.6,30.00,SSE,148,0.0,0.0,92,0.00,,,0.00,Wunderground v.1.15,2013-12-02 15:40:00,
2013-12-02 10:45:00,31.8,29.7,30.00,SSE,148,0.0,0.0,92,0.00,,,0.00,Wunderground v.1.15,2013-12-02 15:45:00,
2013-12-02 10:50:00,31.8,29.7,30.00,SSE,148,0.0,0.0,92,0.00,,,0.00,Wunderground v.1.15,2013-12-02 15:50:00,
2013-12-02 10:55:00,32.0,29.9,30.00,SSE,148,0.0,0.0,92,0.00,,,0.00,Wunderground v.1.15,2013-12-02 15:55:00,
2013-12-02 11:00:00,32.1,30.0,30.00,SSE,148,0.0,0.0,92,0.00,,,0.00,Wunderground v.1.15,2013-12-02 16:00:00,
2013-12-02 11:05:00,32.3,30.2,30.00,SSE,148,0.0,0.0,92,0.00,,,0.00,Wunderground v.1.15,2013-12-02 16:05:00,
2013-12-02 11:10:00,32.7,30.6,29.99,SSE,148,0.0,0.0,92,0.00,,,0.00,Wunderground v.1.15,2013-12-02 16:10:00,
2013-12-02 11:15:00,32.9,30.6,29.99,SSE,148,0.0,0.0,91,0.00,,,0.00,Wunderground v.1.15,2013-12-02 16:15:00,
2013-12-02 11:20:00,33.2,31.1,29.99,SSE,148,0.0,0.0,92,0.00,,,0.00,Wunderground v.1.15,2013-12-02 16:20:00,
2013-12-02 11:30:00,33.9,31.6,29.99,SSE,148,0.0,0.0,91,0.00,,,0.00,Wunderground v.1.15,2013-12-02 16:30:00,
2013-12-02 11:35:00,34.2,31.6,29.99,SSE,148,0.0,0.0,90,0.00,,,0.00,Wunderground v.1.15,2013-12-02 16:35:00,
2013-12-02 11:40:00,34.5,31.9,29.99,SSE,148,0.0,0.0,90,0.00,,,0.00,Wunderground v.1.15,2013-12-02 16:40:00,
2013-12-02 11:50:00,34.7,31.8,29.99,SSE,148,0.0,0.0,89,0.00,,,0.00,Wunderground v.1.15,2013-12-02 16:50:00,
2013-12-02 11:55:00,34.5,31.6,29.98,SSE,148,0.0,0.0,89,0.00,,,0.00,Wunderground v.1.15,2013-12-02 16:55:00,
2013-12-02 12:05:00,33.7,31.1,29.98,SSE,148,1.0,1.0,90,0.00,,,0.00,Wunderground v.1.15,2013-12-02 17:05:00,
2013-12-02 12:10:00,33.2,30.9,29.98,SSE,148,1.0,1.0,91,0.00,,,0.00,Wunderground v.1.15,2013-12-02 17:10:00,
2013-12-02 12:15:00,33.2,31.1,29.98,SSE,148,1.0,1.0,92,0.00,,,0.00,Wunderground v.1.15,2013-12-02 17:15:00,
2013-12-02 12:20:00,33.1,31.0,29.98,SSE,148,1.0,1.0,92,0.00,,,0.00,Wunderground v.1.15,2013-12-02 17:20:00,
2013-12-02 12:25:00,32.9,30.8,29.98,SSE,148,0.0,0.0,92,0.00,,,0.00,Wunderground v.1.15,2013-12-02 17:25:00,
2013-12-02 12:30:00,32.8,30.7,29.98,SSE,148,0.0,0.0,92,0.00,,,0.00,Wunderground v.1.15,2013-12-02 17:30:00,
2013-12-02 12:35:00,32.7,30.9,29.98,SSE,148,1.0,1.0,93,0.00,,,0.00,Wunderground v.1.15,2013-12-02 17:35:00,
2013-12-02 12:40:00,32.6,30.8,29.98,SSE,148,1.0,1.0,93,0.00,,,0.00,Wunderground v.1.15,2013-12-02 17:40:00,
2013-12-02 12:45:00,32.5,30.7,29.97,SSE,147,1.0,1.0,93,0.00,,,0.00,Wunderground v.1.15,2013-12-02 17:45:00,
2013-12-02 12:55:00,32.7,30.9,29.97,NE,55,2.0,3.0,93,0.00,,,0.00,Wunderground v.1.15,2013-12-02 17:55:00,
2013-12-02 13:00:00,33.0,31.2,29.97,NE,55,2.0,2.0,93,0.00,,,0.00,Wunderground v.1.15,2013-12-02 18:00:00,
2013-12-02 13:05:00,33.1,31.3,29.97,NE,55,1.0,2.0,93,0.00,,,0.00,Wunderground v.1.15,2013-12-02 18:05:00,
2013-12-02 13:10:00,33.3,31.5,29.97,NE,55,1.0,1.0,93,0.00,,,0.00,Wunderground v.1.15,2013-12-02 18:10:00,
2013-12-02 13:15:00,33.5,31.7,29.97,NE,55,1.0,1.0,93,0.00,,,0.00,Wunderground v.1.15,2013-12-02 18:15:00,
2013-12-02 13:20:00,33.7,31.9,29.97,NE,55,0.0,0.0,93,0.00,,,0.00,Wunderground v.1.15,2013-12-02 18:20:00,
2013-12-02 13:25:00,33.8,31.7,29.97,NE,55,0.0,0.0,92,0.00,,,0.00,Wunderground v.1.15,2013-12-02 18:25:00,
2013-12-02 13:30:00,33.8,31.7,29.97,NE,55,0.0,0.0,92,0.00,,,0.00,Wunderground v.1.15,2013-12-02 18:30:00,
2013-12-02 13:35:00,33.7,31.6,29.97,NE,55,0.0,0.0,92,0.00,,,0.00,Wunderground v.1.15,2013-12-02 18:35:00,
2013-12-02 13:40:00,33.9,31.8,29.96,NE,55,0.0,0.0,92,0.00,,,0.00,Wunderground v.1.15,2013-12-02 18:40:00,
2013-12-02 13:45:00,34.2,32.4,29.96,NE,55,0.0,0.0,93,0.00,,,0.00,Wunderground v.1.15,2013-12-02 18:45:00,
2013-12-02 13:50:00,34.5,32.4,29.96,NE,55,0.0,0.0,92,0.00,,,0.00,Wunderground v.1.15,2013-12-02 18:50:00,
2013-12-02 14:00:00,34.9,32.8,29.96,NE,55,0.0,0.0,92,0.00,,,0.00,Wunderground v.1.15,2013-12-02 19:00:00,
2013-12-02 14:05:00,35.1,33.0,29.95,NE,55,0.0,0.0,92,0.00,,,0.00,Wunderground v.1.15,2013-12-02 19:05:00,
2013-12-02 14:10:00,35.4,33.0,29.95,NE,55,0.0,0.0,91,0.00,,,0.00,Wunderground v.1.15,2013-12-02 19:10:00,
2013-12-02 14:15:00,35.4,33.0,29.95,NE,55,0.0,0.0,91,0.00,,,0.00,Wunderground v.1.15,2013-12-02 19:15:00,
2013-12-02 14:20:00,35.4,33.0,29.95,NE,55,0.0,0.0,91,0.00,,,0.00,Wunderground v.1.15,2013-12-02 19:20:00,
2013-12-02 14:25:00,35.3,32.7,29.95,NE,55,0.0,0.0,90,0.00,,,0.00,Wunderground v.1.15,2013-12-02 19:25:00,
2013-12-02 14:30:00,35.2,32.6,29.95,NE,55,0.0,0.0,90,0.00,,,0.00,Wunderground v.1.15,2013-12-02 19:30:00,
2013-12-02 14:35:00,35.4,33.0,29.95,NE,55,0.0,0.0,91,0.00,,,0.00,Wunderground v.1.15,2013-12-02 19:35:00,
2013-12-02 14:40:00,35.7,33.3,29.95,NE,55,0.0,0.0,91,0.00,,,0.00,Wunderground v.1.15,2013-12-02 19:40:00,
2013-12-02 14:45:00,35.7,33.1,29.95,NE,55,0.0,0.0,90,0.00,,,0.00,Wunderground v.1.15,2013-12-02 19:45:00,
2013-12-02 14:55:00,34.9,32.5,29.95,NE,55,0.0,0.0,91,0.00,,,0.00,Wunderground v.1.15,2013-12-02 19:55:00,
2013-12-02 15:00:00,34.8,32.4,29.95,NE,55,0.0,0.0,91,0.00,,,0.00,Wunderground v.1.15,2013-12-02 20:00:00,
2013-12-02 15:05:00,34.9,32.8,29.95,NE,55,0.0,0.0,92,0.00,,,0.00,Wunderground v.1.15,2013-12-02 20:05:00,
2013-12-02 15:10:00,35.0,32.6,29.94,NE,55,0.0,0.0,91,0.00,,,0.00,Wunderground v.1.15,2013-12-02 20:10:00,
2013-12-02 15:15:00,34.8,32.4,29.94,NE,55,0.0,0.0,91,0.00,,,0.00,Wunderground v.1.15,2013-12-02 20:15:00,
2013-12-02 15:20:00,34.4,32.0,29.95,NE,55,0.0,0.0,91,0.00,,,0.00,Wunderground v.1.15,2013-12-02 20:20:00,
2013-12-02 15:35:00,34.3,32.2,29.94,NE,55,0.0,0.0,92,0.00,,,0.00,Wunderground v.1.15,2013-12-02 20:35:00,
2013-12-02 15:40:00,34.4,32.3,29.94,NE,55,0.0,0.0,92,0.00,,,0.00,Wunderground v.1.15,2013-12-02 20:40:00,
2013-12-02 15:45:00,34.6,32.5,29.94,NE,55,0.0,0.0,92,0.00,,,0.00,Wunderground v.1.15,2013-12-02 20:45:00,
2013-12-02 15:50:00,34.7,32.6,29.94,NE,55,0.0,0.0,92,0.00,,,0.00,Wunderground v.1.15,2013-12-02 20:50:00,
2013-12-02 15:55:00,34.9,32.8,29.94,NE,55,0.0,0.0,92,0.00,,,0.00,Wunderground v.1.15,2013-12-02 20:55:00,
2013-12-02 16:00:00,35.0,32.9,29.94,NE,55,0.0,0.0,92,0.00,,,0.00,Wunderground v.1.15,2013-12-02 21:00:00,
2013-12-02 16:05:00,34.9,32.5,29.94,NE,55,0.0,0.0,91,0.00,,,0.00,Wunderground v.1.15,2013-12-02 21:05:00,
2013-12-02 16:10:00,34.4,32.0,29.94,NE,55,0.0,0.0,91,0.00,,,0.00,Wunderground v.1.15,2013-12-02 21:10:00,
2013-12-02 16:15:00,34.1,32.0,29.94,NE,55,0.0,0.0,92,0.00,,,0.00,Wunderground v.1.15,2013-12-02 21:15:00,
2013-12-02 16:20:00,34.0,31.9,29.94,NE,55,0.0,0.0,92,0.00,,,0.00,Wunderground v.1.15,2013-12-02 21:20:00,
2013-12-02 16:25:00,33.8,31.7,29.94,NE,55,0.0,0.0,92,0.00,,,0.00,Wunderground v.1.15,2013-12-02 21:25:00,
2013-12-02 16:35:00,33.7,31.6,29.94,NE,55,0.0,0.0,92,0.00,,,0.00,Wunderground v.1.15,2013-12-02 21:35:00,
2013-12-02 16:40:00,33.5,31.7,29.94,NE,55,0.0,0.0,93,0.00,,,0.00,Wunderground v.1.15,2013-12-02 21:40:00,
2013-12-02 16:45:00,33.4,31.6,29.94,NE,55,0.0,0.0,93,0.00,,,0.00,Wunderground v.1.15,2013-12-02 21:45:00,
2013-12-02 16:50:00,33.3,31.5,29.94,NE,55,0.0,0.0,93,0.00,,,0.00,Wunderground v.1.15,2013-12-02 21:50:00,
2013-12-02 16:55:00,33.3,31.5,29.94,NE,55,0.0,0.0,93,0.00,,,0.00,Wunderground v.1.15,2013-12-02 21:55:00,
2013-12-02 17:05:00,33.4,31.6,29.94,NE,55,0.0,0.0,93,0.00,,,0.00,Wunderground v.1.15,2013-12-02 22:05:00,
2013-12-02 17:10:00,33.4,31.6,29.94,NE,55,0.0,0.0,93,0.00,,,0.00,Wunderground v.1.15,2013-12-02 22:10:00,
2013-12-02 17:15:00,33.3,31.5,29.94,NE,55,0.0,0.0,93,0.00,,,0.00,Wunderground v.1.15,2013-12-02 22:15:00,
2013-12-02 17:20:00,33.1,31.3,29.94,NE,55,0.0,0.0,93,0.00,,,0.00,Wunderground v.1.15,2013-12-02 22:20:00,
2013-12-02 17:25:00,33.1,31.6,29.94,NE,55,0.0,0.0,94,0.00,,,0.00,Wunderground v.1.15,2013-12-02 22:25:00,
2013-12-02 17:30:00,33.1,31.6,29.94,NE,55,0.0,0.0,94,0.00,,,0.00,Wunderground v.1.15,2013-12-02 22:30:00,
2013-12-02 17:35:00,33.2,31.7,29.94,NE,55,0.0,0.0,94,0.00,,,0.00,Wunderground v.1.15,2013-12-02 22:35:00,
2013-12-02 17:40:00,33.4,31.9,29.94,NE,55,0.0,0.0,94,0.00,,,0.00,Wunderground v.1.15,2013-12-02 22:40:00,
2013-12-02 17:45:00,33.4,31.6,29.94,NE,55,0.0,0.0,93,0.00,,,0.00,Wunderground v.1.15,2013-12-02 22:45:00,
2013-12-02 17:55:00,33.4,31.6,29.94,NE,55,0.0,2.0,93,0.00,,,0.00,Wunderground v.1.15,2013-12-02 22:55:00,
2013-12-02 18:00:00,33.3,31.5,29.95,NE,55,1.0,1.0,93,0.00,,,0.00,Wunderground v.1.15,2013-12-02 23:00:00,
2013-12-02 18:10:00,33.5,32.0,29.94,NE,55,0.0,0.0,94,0.00,,,0.00,Wunderground v.1.15,2013-12-02 23:10:00,
2013-12-02 18:15:00,33.5,32.0,29.94,NE,55,0.0,0.0,94,0.00,,,0.00,Wunderground v.1.15,2013-12-02 23:15:00,
2013-12-02 18:20:00,33.4,31.9,29.94,NE,55,0.0,0.0,94,0.00,,,0.00,Wunderground v.1.15,2013-12-02 23:20:00,
2013-12-02 18:25:00,33.4,31.9,29.95,NE,55,0.0,1.0,94,0.00,,,0.00,Wunderground v.1.15,2013-12-02 23:25:00,
2013-12-02 18:30:00,33.5,32.0,29.95,NE,55,1.0,3.0,94,0.00,,,0.00,Wunderground v.1.15,2013-12-02 23:30:00,
2013-12-02 18:35:00,33.5,32.0,29.95,NE,55,1.0,3.0,94,0.00,,,0.00,Wunderground v.1.15,2013-12-02 23:35:00,
2013-12-02 18:40:00,33.7,32.2,29.95,NE,55,1.0,1.0,94,0.00,,,0.00,Wunderground v.1.15,2013-12-02 23:40:00,
2013-12-02 18:45:00,33.5,32.0,29.95,NE,55,0.0,1.0,94,0.00,,,0.00,Wunderground v.1.15,2013-12-02 23:45:00,
2013-12-02 18:50:00,33.4,31.9,29.95,NE,55,0.0,0.0,94,0.00,,,0.00,Wunderground v.1.15,2013-12-02 23:50:00,
2013-12-02 18:55:00,33.4,31.9,29.96,NE,55,0.0,0.0,94,0.00,,,0.00,Wunderground v.1.15,2013-12-02 23:55:00,
2013-12-02 19:00:00,33.5,32.0,29.95,NE,55,0.0,0.0,94,0.00,,,0.00,Wunderground v.1.15,2013-12-03 00:00:00,
2013-12-02 19:05:00,33.5,32.0,29.96,NE,55,0.0,0.0,94,0.00,,,0.00,Wunderground v.1.15,2013-12-03 00:05:00,
2013-12-02 19:10:00,33.7,32.2,29.96,NE,55,0.0,0.0,94,0.00,,,0.00,Wunderground v.1.15,2013-12-03 00:10:00,
2013-12-02 19:15:00,33.8,32.3,29.96,NE,55,0.0,0.0,94,0.00,,,0.00,Wunderground v.1.15,2013-12-03 00:15:00,
2013-12-02 19:20:00,33.9,32.4,29.96,NE,55,0.0,0.0,94,0.00,,,0.00,Wunderground v.1.15,2013-12-03 00:20:00,
2013-12-02 19:30:00,33.5,31.7,29.95,NE,55,0.0,2.0,93,0.00,,,0.00,Wunderground v.1.15,2013-12-03 00:30:00,
2013-12-02 19:35:00,33.4,31.9,29.95,NE,55,0.0,2.0,94,0.00,,,0.00,Wunderground v.1.15,2013-12-03 00:35:00,
2013-12-02 19:40:00,33.2,31.7,29.95,NE,55,0.0,0.0,94,0.00,,,0.00,Wunderground v.1.15,2013-12-03 00:40:00,
2013-12-02 19:45:00,33.0,31.5,29.95,NE,55,0.0,0.0,94,0.00,,,0.00,Wunderground v.1.15,2013-12-03 00:45:00,
2013-12-02 19:50:00,32.8,31.3,29.95,NE,55,0.0,1.0,94,0.00,,,0.00,Wunderground v.1.15,2013-12-03 00:50:00,
2013-12-02 19:55:00,32.5,31.0,29.95,NE,55,1.0,2.0,94,0.00,,,0.00,Wunderground v.1.15,2013-12-03 00:55:00,
2013-12-02 20:00:00,32.4,30.9,29.95,NE,55,1.0,1.0,94,0.00,,,0.00,Wunderground v.1.15,2013-12-03 01:00:00,
2013-12-02 20:05:00,32.4,30.9,29.95,NE,55,0.0,1.0,94,0.00,,,0.00,Wunderground v.1.15,2013-12-03 01:05:00,
2013-12-02 20:10:00,32.4,31.1,29.95,NE,55,0.0,1.0,95,0.00,,,0.00,Wunderground v.1.15,2013-12-03 01:10:00,
2013-12-02 20:15:00,32.4,31.1,29.95,NE,55,0.0,1.0,95,0.00,,,0.00,Wunderground v.1.15,2013-12-03 01:15:00,
2013-12-02 20:20:00,32.4,31.1,29.95,NE,55,1.0,1.0,95,0.00,,,0.00,Wunderground v.1.15,2013-12-03 01:20:00,
2013-12-02 20:25:00,32.5,31.2,29.95,NE,55,0.0,1.0,95,0.00,,,0.00,Wunderground v.1.15,2013-12-03 01:25:00,
2013-12-02 20:30:00,32.6,31.3,29.95,NE,55,0.0,0.0,95,0.00,,,0.00,Wunderground v.1.15,2013-12-03 01:30:00,
2013-12-02 20:35:00,32.5,31.2,29.96,NE,55,0.0,0.0,95,0.00,,,0.00,Wunderground v.1.15,2013-12-03 01:35:00,
2013-12-02 20:40:00,32.6,31.3,29.96,NE,55,0.0,0.0,95,0.00,,,0.00,Wunderground v.1.15,2013-12-03 01:40:00,
2013-12-02 20:45:00,32.7,31.4,29.96,NE,55,0.0,0.0,95,0.00,,,0.00,Wunderground v.1.15,2013-12-03 01:45:00,
2013-12-02 20:50:00,32.8,31.5,29.96,NE,55,0.0,0.0,95,0.00,,,0.00,Wunderground v.1.15,2013-12-03 01:50:00,
2013-12-02 20:55:00,33.0,31.7,29.96,NE,55,0.0,0.0,95,0.00,,,0.00,Wunderground v.1.15,2013-12-03 01:55:00,
2013-12-02 21:05:00,33.2,31.9,29.96,NE,55,0.0,0.0,95,0.00,,,0.00,Wunderground v.1.15,2013-12-03 02:05:00,
2013-12-02 21:10:00,33.2,31.9,29.96,NE,55,0.0,0.0,95,0.00,,,0.00,Wunderground v.1.15,2013-12-03 02:10:00,
2013-12-02 21:15:00,33.4,31.9,29.96,NE,55,0.0,0.0,94,0.00,,,0.00,Wunderground v.1.15,2013-12-03 02:15:00,
2013-12-02 21:20:00,33.3,31.8,29.95,NE,55,0.0,0.0,94,0.00,,,0.00,Wunderground v.1.15,2013-12-03 02:20:00,
2013-12-02 21:25:00,33.3,31.8,29.95,NE,55,0.0,0.0,94,0.00,,,0.00,Wunderground v.1.15,2013-12-03 02:25:00,
2013-12-02 21:30:00,33.4,31.9,29.95,NE,55,0.0,0.0,94,0.00,,,0.00,Wunderground v.1.15,2013-12-03 02:30:00,
2013-12-02 21:40:00,33.1,31.6,29.95,NE,55,0.0,0.0,94,0.00,,,0.00,Wunderground v.1.15,2013-12-03 02:40:00,
2013-12-02 21:50:00,33.0,31.5,29.95,NE,55,0.0,0.0,94,0.00,,,0.00,Wunderground v.1.15,2013-12-03 02:50:00,
2013-12-02 22:00:00,32.8,31.3,29.95,NE,55,0.0,1.0,94,0.00,,,0.00,Wunderground v.1.15,2013-12-03 03:00:00,
2013-12-02 22:05:00,32.6,31.1,29.95,NE,55,1.0,1.0,94,0.00,,,0.00,Wunderground v.1.15,2013-12-03 03:05:00,
2013-12-02 22:10:00,32.5,31.2,29.95,NE,55,0.0,0.0,95,0.00,,,0.00,Wunderground v.1.15,2013-12-03 03:10:00,
2013-12-02 22:15:00,32.4,30.9,29.95,NE,55,0.0,0.0,94,0.00,,,0.00,Wunderground v.1.15,2013-12-03 03:15:00,
2013-12-02 22:20:00,32.3,31.0,29.95,NE,55,0.0,0.0,95,0.00,,,0.00,Wunderground v.1.15,2013-12-03 03:20:00,
2013-12-02 22:25:00,32.3,31.0,29.95,NE,55,0.0,0.0,95,0.00,,,0.00,Wunderground v.1.15,2013-12-03 03:25:00,
2013-12-02 22:30:00,32.3,31.0,29.94,NE,55,0.0,0.0,95,0.00,,,0.00,Wunderground v.1.15,2013-12-03 03:30:00,
2013-12-02 22:35:00,32.3,31.0,29.95,NE,55,0.0,0.0,95,0.00,,,0.00,Wunderground v.1.15,2013-12-03 03:35:00,
2013-12-02 22:40:00,32.5,31.2,29.95,NE,55,0.0,0.0,95,0.00,,,0.00,Wunderground v.1.15,2013-12-03 03:40:00,
2013-12-02 22:50:00,32.6,31.3,29.94,NE,55,0.0,0.0,95,0.00,,,0.00,Wunderground v.1.15,2013-12-03 03:50:00,
2013-12-02 22:55:00,32.6,31.3,29.94,NE,55,0.0,0.0,95,0.00,,,0.00,Wunderground v.1.15,2013-12-03 03:55:00,
2013-12-02 23:00:00,32.7,31.4,29.94,NE,55,0.0,0.0,95,0.00,,,0.00,Wunderground v.1.15,2013-12-03 04:00:00,
2013-12-02 23:05:00,32.8,31.5,29.94,NE,55,0.0,0.0,95,0.00,,,0.00,Wunderground v.1.15,2013-12-03 04:05:00,
2013-12-02 23:10:00,32.8,31.5,29.95,NE,55,0.0,0.0,95,0.00,,,0.00,Wunderground v.1.15,2013-12-03 04:10:00,
2013-12-02 23:15:00,32.8,31.5,29.95,NE,55,0.0,0.0,95,0.00,,,0.00,Wunderground v.1.15,2013-12-03 04:15:00,
2013-12-02 23:20:00,32.8,31.5,29.94,NE,55,0.0,0.0,95,0.00,,,0.00,Wunderground v.1.15,2013-12-03 04:20:00,
2013-12-02 23:25:00,32.9,31.6,29.95,NE,55,0.0,0.0,95,0.00,,,0.00,Wunderground v.1.15,2013-12-03 04:25:00,
2013-12-02 23:30:00,32.9,31.6,29.94,NE,55,0.0,0.0,95,0.00,,,0.00,Wunderground v.1.15,2013-12-03 04:30:00,
2013-12-02 23:35:00,33.0,31.5,29.94,NE,55,0.0,0.0,94,0.00,,,0.00,Wunderground v.1.15,2013-12-03 04:35:00,
2013-12-02 23:45:00,33.0,31.7,29.94,NE,55,0.0,0.0,95,0.00,,,0.00,Wunderground v.1.15,2013-12-03 04:45:00,
2013-12-02 23:50:00,33.0,31.5,29.94,NE,55,0.0,0.0,94,0.00,,,0.00,Wunderground v.1.15,2013-12-03 04:50:00,
2013-12-02 23:55:00,33.1,31.8,29.94,NE,55,0.0,3.0,95,0.00,,,0.00,Wunderground v.1.15,2013-12-03 04:55:00,